Location: Munkebjergskolens Observatorium
(55.3864°N, 10.3987°E)
Time: 03:16:15
(UTC+02:00)

KKS-1 - Pass Details

Date: 11 April 2023
Orbit: 633 x 644 km, 98.2° (Epoch: 31 May)

Event Time Altitude Azimuth Distance (km) Brightness Sun altitude
Rises 02:09:20 0° 6° (N) 2,946 ? -25.6°
Reaches altitude 10° 02:12:33 10° 340° (NNW) 2,034 ? -25.5°
Maximum altitude 02:14:42 14° 311° (NW) 1,805 ? -25.4°
Enters shadow 02:16:30 11° 286° (WNW) 1,968 ? -25.4°
